Location: Franzen
(48.6167°N, 15.3833°E)
Time: 22:47:44
(UTC+00:00)

Cosmos 2219 - Pass Details

Date: 31 July 2021
Orbit: 834 x 859 km, 71.1° (Epoch: 22 September)

Event Time Altitude Azimuth Distance (km) Brightness Sun altitude
Exits shadow 23:56:28 31° 248° (WSW) 1,468 4.1 -22.4°
Maximum altitude 23:58:55 50° 305° (NW) 1,089 3.8 -22.3°
Drops below altitude 10° 00:04:31 10° 20° (NNE) 2,506 6.8 -22.1°
Sets 00:07:04 0° 26° (NNE) 3,447 7.8 -21.9°
